Wetterdaten: Woche 12.10.15 - 18.10.15 (KW42)
Datum Zeit Temp. Auen Feucht Auen Luftdruck Regen Richtung Windben
12.10.2015 00:00 1,3 C 95 % 1016,3 hPa 0,0 mm O-NO 0,1 km/h (0 Bft)
12.10.2015 01:00 2,1 C 95 % 1016,3 hPa 0,0 mm O-NO 0,0 km/h (0 Bft)
12.10.2015 02:00 3,2 C 96 % 1016,3 hPa 0,0 mm O-NO 3,2 km/h (1 Bft)
12.10.2015 03:00 3,8 C 96 % 1016,3 hPa 0,0 mm O-SO 3,7 km/h (1 Bft)
12.10.2015 04:00 4,1 C 95 % 1016,4 hPa 0,0 mm O 5,6 km/h (1 Bft)
12.10.2015 05:00 4,2 C 95 % 1016,5 hPa 0,0 mm SO 6,9 km/h (2 Bft)
12.10.2015 06:00 4,1 C 94 % 1016,9 hPa 0,0 mm O-SO 8,4 km/h (2 Bft)
12.10.2015 07:00 4,2 C 93 % 1017,1 hPa 0,0 mm O-SO 7,4 km/h (2 Bft)
12.10.2015 08:00 4,2 C 93 % 1017,4 hPa 0,0 mm O-SO 7,8 km/h (2 Bft)
12.10.2015 09:00 4,7 C 92 % 1017,7 hPa 0,0 mm O-SO 9,5 km/h (2 Bft)
12.10.2015 10:00 5,4 C 91 % 1017,9 hPa 0,0 mm SO 10,2 km/h (2 Bft)
12.10.2015 11:00 6,8 C 88 % 1017,7 hPa 0,0 mm O 11,6 km/h (2 Bft)
12.10.2015 12:00 7,9 C 86 % 1017,4 hPa 0,0 mm SO 13,2 km/h (3 Bft)
12.10.2015 13:00 8,9 C 84 % 1017,0 hPa 0,0 mm O-SO 13,8 km/h (3 Bft)
12.10.2015 14:00 9,6 C 82 % 1016,7 hPa 0,0 mm O-SO 13,4 km/h (3 Bft)
12.10.2015 15:00 9,8 C 82 % 1016,4 hPa 0,0 mm O 13,6 km/h (3 Bft)
12.10.2015 16:00 9,5 C 84 % 1016,2 hPa 0,0 mm O-NO 12,4 km/h (3 Bft)
12.10.2015 17:00 8,7 C 85 % 1016,2 hPa 0,0 mm O 8,2 km/h (2 Bft)
12.10.2015 18:00 6,6 C 90 % 1016,4 hPa 0,0 mm O-SO 3,2 km/h (1 Bft)
12.10.2015 19:00 5,5 C 92 % 1016,8 hPa 0,0 mm S-SO 2,3 km/h (1 Bft)
12.10.2015 20:00 4,7 C 93 % 1016,7 hPa 0,0 mm O 1,3 km/h (1 Bft)
12.10.2015 21:00 4,4 C 94 % 1016,2 hPa 0,0 mm O-SO 1,7 km/h (1 Bft)
12.10.2015 22:00 4,4 C 94 % 1016,2 hPa 0,0 mm NO 1,6 km/h (1 Bft)
12.10.2015 23:00 4,8 C 94 % 1015,8 hPa 0,0 mm NO 0,4 km/h (0 Bft)
13.10.2015 00:00 5,5 C 94 % 1015,8 hPa 0,0 mm O 2,1 km/h (1 Bft)
13.10.2015 01:00 5,3 C 94 % 1015,9 hPa 0,0 mm O 6,0 km/h (2 Bft)
13.10.2015 02:00 4,9 C 93 % 1015,9 hPa 0,0 mm O-NO 7,6 km/h (2 Bft)
13.10.2015 03:00 4,6 C 93 % 1015,7 hPa 0,0 mm O 7,5 km/h (2 Bft)
13.10.2015 04:00 4,5 C 94 % 1015,3 hPa 0,0 mm O 6,5 km/h (2 Bft)
13.10.2015 05:00 4,5 C 94 % 1015,3 hPa 0,0 mm O 5,3 km/h (1 Bft)
13.10.2015 06:00 4,4 C 94 % 1015,4 hPa 0,0 mm O 6,8 km/h (2 Bft)
13.10.2015 07:00 4,3 C 94 % 1015,1 hPa 0,0 mm O-SO 7,6 km/h (2 Bft)
13.10.2015 08:00 4,4 C 94 % 1015,4 hPa 0,0 mm O-SO 5,9 km/h (2 Bft)
13.10.2015 09:00 4,5 C 94 % 1015,6 hPa 0,0 mm O 9,9 km/h (2 Bft)
13.10.2015 10:00 4,9 C 94 % 1015,5 hPa 0,0 mm O 12,2 km/h (2 Bft)
13.10.2015 11:00 5,9 C 94 % 1015,0 hPa 0,0 mm O 12,5 km/h (3 Bft)
13.10.2015 12:00 7,0 C 92 % 1014,6 hPa 0,0 mm O-SO 15,3 km/h (3 Bft)
13.10.2015 13:00 7,9 C 90 % 1014,2 hPa 0,0 mm O 15,8 km/h (3 Bft)
13.10.2015 14:00 7,7 C 91 % 1013,7 hPa 0,0 mm O 14,6 km/h (3 Bft)
13.10.2015 15:00 7,3 C 91 % 1013,7 hPa 0,0 mm O-NO 14,6 km/h (3 Bft)
13.10.2015 16:00 7,4 C 91 % 1013,7 hPa 0,0 mm O 12,9 km/h (3 Bft)
13.10.2015 17:00 7,2 C 91 % 1014,0 hPa 0,0 mm O-SO 8,4 km/h (2 Bft)
13.10.2015 18:00 6,5 C 91 % 1014,0 hPa 0,0 mm O 9,4 km/h (2 Bft)
13.10.2015 19:00 6,2 C 91 % 1014,0 hPa 0,0 mm O 8,8 km/h (2 Bft)
13.10.2015 20:00 6,1 C 92 % 1013,8 hPa 0,0 mm O-SO 9,5 km/h (2 Bft)
13.10.2015 21:00 6,0 C 92 % 1013,2 hPa 0,0 mm O 10,9 km/h (2 Bft)
13.10.2015 22:00 5,7 C 92 % 1012,9 hPa 0,0 mm O 10,6 km/h (2 Bft)
13.10.2015 23:00 5,4 C 92 % 1012,7 hPa 0,2 mm O-SO 9,7 km/h (2 Bft)
14.10.2015 00:00 4,9 C 93 % 1012,8 hPa 0,2 mm SO 3,1 km/h (1 Bft)
14.10.2015 01:00 5,2 C 93 % 1013,6 hPa 0,0 mm W 5,4 km/h (1 Bft)
14.10.2015 02:00 4,9 C 94 % 1014,6 hPa 0,0 mm W 9,7 km/h (2 Bft)
14.10.2015 03:00 4,9 C 94 % 1015,0 hPa 0,4 mm W 10,2 km/h (2 Bft)
14.10.2015 04:00 4,8 C 94 % 1015,7 hPa 0,6 mm W 7,9 km/h (2 Bft)
14.10.2015 05:00 4,9 C 94 % 1015,9 hPa 0,8 mm W 2,4 km/h (1 Bft)
14.10.2015 06:00 4,9 C 94 % 1016,0 hPa 0,4 mm W 0,0 km/h (0 Bft)
14.10.2015 07:00 5,0 C 94 % 1016,3 hPa 0,6 mm W 0,0 km/h (0 Bft)
14.10.2015 08:00 5,5 C 95 % 1016,4 hPa 0,2 mm W 0,0 km/h (0 Bft)
14.10.2015 09:00 6,2 C 95 % 1016,5 hPa 0,0 mm W 1,1 km/h (0 Bft)
14.10.2015 10:00 6,3 C 93 % 1016,4 hPa 0,0 mm W 6,3 km/h (2 Bft)
14.10.2015 11:00 6,3 C 93 % 1016,4 hPa 1,0 mm W 4,5 km/h (1 Bft)
14.10.2015 12:00 6,5 C 93 % 1016,2 hPa 0,8 mm W 6,0 km/h (2 Bft)
14.10.2015 13:00 7,2 C 92 % 1015,8 hPa 0,0 mm W 4,8 km/h (1 Bft)
14.10.2015 14:00 7,1 C 91 % 1015,5 hPa 0,2 mm W-SW 2,0 km/h (1 Bft)
14.10.2015 15:00 6,9 C 91 % 1015,2 hPa 0,0 mm SW 2,0 km/h (1 Bft)
14.10.2015 16:00 6,9 C 91 % 1015,1 hPa 0,0 mm S 1,7 km/h (1 Bft)
14.10.2015 17:00 6,7 C 92 % 1014,8 hPa 0,0 mm S-SO 5,9 km/h (2 Bft)
14.10.2015 18:00 6,5 C 93 % 1014,7 hPa 0,0 mm O 8,0 km/h (2 Bft)
14.10.2015 19:00 6,3 C 93 % 1014,5 hPa 0,2 mm O 9,3 km/h (2 Bft)
14.10.2015 20:00 6,3 C 93 % 1014,2 hPa 0,0 mm O 6,7 km/h (2 Bft)
14.10.2015 21:00 6,5 C 93 % 1013,9 hPa 0,0 mm NO 4,8 km/h (1 Bft)
14.10.2015 22:00 6,5 C 93 % 1013,7 hPa 0,0 mm O 7,0 km/h (2 Bft)
14.10.2015 23:00 6,5 C 93 % 1013,3 hPa 0,8 mm O-SO 3,5 km/h (1 Bft)
15.10.2015 00:00 6,4 C 94 % 1012,9 hPa 0,4 mm O-SO 0,0 km/h (0 Bft)
15.10.2015 01:00 6,4 C 94 % 1012,5 hPa 0,0 mm O-SO 0,3 km/h (0 Bft)
15.10.2015 02:00 6,4 C 94 % 1012,3 hPa 0,4 mm O-SO 0,9 km/h (0 Bft)
15.10.2015 03:00 6,3 C 94 % 1011,7 hPa 1,0 mm O-SO 0,0 km/h (0 Bft)
15.10.2015 04:00 6,4 C 94 % 1011,4 hPa 0,2 mm O-SO 1,1 km/h (0 Bft)
15.10.2015 05:00 6,4 C 94 % 1011,0 hPa 0,0 mm SW 2,4 km/h (1 Bft)
15.10.2015 06:00 6,3 C 95 % 1010,7 hPa 0,0 mm W 4,9 km/h (1 Bft)
15.10.2015 07:00 6,2 C 94 % 1010,4 hPa 0,0 mm W 5,5 km/h (1 Bft)
15.10.2015 08:00 6,1 C 94 % 1010,9 hPa 0,0 mm W 7,4 km/h (2 Bft)
15.10.2015 09:00 6,3 C 94 % 1011,3 hPa 0,0 mm W 6,0 km/h (2 Bft)
15.10.2015 10:00 6,7 C 94 % 1011,6 hPa 0,0 mm W 5,1 km/h (1 Bft)
15.10.2015 11:00 7,3 C 92 % 1011,3 hPa 0,0 mm W 5,3 km/h (1 Bft)
15.10.2015 12:00 7,4 C 92 % 1011,5 hPa 0,0 mm W 6,1 km/h (2 Bft)
15.10.2015 13:00 7,5 C 91 % 1012,0 hPa 0,0 mm W 6,8 km/h (2 Bft)
15.10.2015 14:00 7,3 C 92 % 1012,0 hPa 0,0 mm W 5,7 km/h (1 Bft)
15.10.2015 15:00 7,1 C 93 % 1012,3 hPa 0,0 mm W 5,5 km/h (1 Bft)
15.10.2015 16:00 7,2 C 93 % 1012,3 hPa 0,0 mm W-NW 3,5 km/h (1 Bft)
15.10.2015 17:00 6,8 C 93 % 1012,6 hPa 0,2 mm W-NW 4,0 km/h (1 Bft)
15.10.2015 18:00 6,4 C 94 % 1013,0 hPa 0,0 mm W 6,7 km/h (2 Bft)
15.10.2015 19:00 6,2 C 94 % 1013,6 hPa 0,0 mm W 4,9 km/h (1 Bft)
15.10.2015 20:00 5,9 C 94 % 1014,0 hPa 0,0 mm W 4,5 km/h (1 Bft)
15.10.2015 21:00 5,9 C 94 % 1014,2 hPa 0,0 mm W 4,7 km/h (1 Bft)
15.10.2015 22:00 5,8 C 94 % 1014,8 hPa 0,0 mm W 5,1 km/h (1 Bft)
15.10.2015 23:00 5,8 C 94 % 1015,1 hPa 0,0 mm W 7,8 km/h (2 Bft)
16.10.2015 00:00 5,6 C 94 % 1015,5 hPa 0,0 mm W 6,7 km/h (2 Bft)
16.10.2015 01:00 5,2 C 94 % 1015,8 hPa 0,0 mm W 5,9 km/h (2 Bft)
16.10.2015 02:00 5,2 C 94 % 1015,9 hPa 0,0 mm W 5,1 km/h (1 Bft)
16.10.2015 03:00 5,0 C 94 % 1016,1 hPa 0,0 mm W 4,9 km/h (1 Bft)
16.10.2015 04:00 4,9 C 93 % 1016,2 hPa 0,0 mm W 2,5 km/h (1 Bft)
16.10.2015 05:00 4,8 C 93 % 1016,2 hPa 0,0 mm W 3,6 km/h (1 Bft)
16.10.2015 06:00 4,7 C 93 % 1015,9 hPa 0,0 mm W 3,9 km/h (1 Bft)
16.10.2015 07:00 4,6 C 93 % 1016,3 hPa 0,0 mm W 4,8 km/h (1 Bft)
16.10.2015 08:00 4,5 C 93 % 1016,8 hPa 0,0 mm W 6,4 km/h (2 Bft)
16.10.2015 09:00 4,7 C 93 % 1017,6 hPa 0,4 mm W 2,9 km/h (1 Bft)
16.10.2015 10:00 5,0 C 93 % 1017,6 hPa 0,2 mm W-NW 4,3 km/h (1 Bft)
16.10.2015 11:00 5,4 C 92 % 1017,8 hPa 0,0 mm W 5,9 km/h (2 Bft)
16.10.2015 12:00 5,7 C 91 % 1017,9 hPa 0,0 mm W 5,3 km/h (1 Bft)
16.10.2015 13:00 5,9 C 91 % 1017,7 hPa 0,0 mm W 4,8 km/h (1 Bft)
16.10.2015 14:00 6,2 C 89 % 1017,5 hPa 0,0 mm W 4,3 km/h (1 Bft)
16.10.2015 15:00 6,2 C 90 % 1017,6 hPa 0,6 mm W-NW 2,5 km/h (1 Bft)
16.10.2015 16:00 5,9 C 92 % 1017,8 hPa 0,2 mm W-NW 1,3 km/h (1 Bft)
16.10.2015 17:00 5,8 C 92 % 1018,0 hPa 0,2 mm W-NW 1,1 km/h (0 Bft)
16.10.2015 18:00 5,6 C 92 % 1018,2 hPa 0,2 mm W-NW 0,8 km/h (0 Bft)
16.10.2015 19:00 5,4 C 92 % 1018,6 hPa 0,0 mm W 3,3 km/h (1 Bft)
16.10.2015 20:00 5,3 C 93 % 1019,0 hPa 0,0 mm W 4,3 km/h (1 Bft)
16.10.2015 21:00 5,1 C 93 % 1019,4 hPa 0,0 mm W 5,6 km/h (1 Bft)
16.10.2015 22:00 4,8 C 93 % 1019,8 hPa 0,0 mm W 1,9 km/h (1 Bft)
16.10.2015 23:00 4,7 C 93 % 1020,0 hPa 0,0 mm W 0,8 km/h (0 Bft)
17.10.2015 00:00 4,6 C 93 % 1019,8 hPa 0,0 mm W 1,6 km/h (1 Bft)
17.10.2015 01:00 4,4 C 93 % 1019,6 hPa 0,0 mm W 0,1 km/h (0 Bft)
17.10.2015 02:00 4,1 C 93 % 1019,4 hPa 0,0 mm W 0,1 km/h (0 Bft)
17.10.2015 03:00 3,8 C 93 % 1019,3 hPa 0,0 mm W 1,2 km/h (1 Bft)
17.10.2015 04:00 3,8 C 93 % 1019,3 hPa 0,0 mm W 0,0 km/h (0 Bft)
17.10.2015 05:00 4,0 C 94 % 1019,3 hPa 0,0 mm W 0,0 km/h (0 Bft)
17.10.2015 06:00 4,2 C 94 % 1019,5 hPa 0,0 mm W 0,0 km/h (0 Bft)
17.10.2015 07:00 4,3 C 94 % 1019,5 hPa 0,0 mm W 0,0 km/h (0 Bft)
17.10.2015 08:00 4,6 C 94 % 1019,8 hPa 0,0 mm W 0,0 km/h (0 Bft)
17.10.2015 09:00 5,8 C 93 % 1020,1 hPa 0,0 mm W 0,0 km/h (0 Bft)
17.10.2015 10:00 6,7 C 89 % 1019,9 hPa 0,0 mm O 2,7 km/h (1 Bft)
17.10.2015 11:00 7,2 C 87 % 1019,5 hPa 0,0 mm O-SO 4,3 km/h (1 Bft)
17.10.2015 12:00 7,9 C 82 % 1019,0 hPa 0,0 mm O-SO 5,7 km/h (1 Bft)
17.10.2015 13:00 8,5 C 78 % 1018,4 hPa 0,0 mm SO 6,3 km/h (2 Bft)
17.10.2015 14:00 9,0 C 76 % 1018,2 hPa 0,0 mm SO 4,7 km/h (1 Bft)
17.10.2015 15:00 9,2 C 77 % 1018,1 hPa 0,0 mm O-SO 6,1 km/h (2 Bft)
17.10.2015 16:00 9,0 C 80 % 1018,1 hPa 0,0 mm O-NO 6,0 km/h (2 Bft)
17.10.2015 17:00 8,3 C 82 % 1018,1 hPa 0,0 mm O-NO 6,0 km/h (2 Bft)
17.10.2015 18:00 7,5 C 85 % 1018,3 hPa 0,0 mm SO 4,4 km/h (1 Bft)
17.10.2015 19:00 7,0 C 88 % 1018,5 hPa 0,0 mm SO 0,7 km/h (0 Bft)
17.10.2015 20:00 6,7 C 90 % 1018,5 hPa 0,0 mm SO 0,1 km/h (0 Bft)
17.10.2015 21:00 6,4 C 91 % 1018,4 hPa 0,0 mm SO 0,4 km/h (0 Bft)
17.10.2015 22:00 5,7 C 92 % 1018,3 hPa 0,0 mm SO 0,8 km/h (0 Bft)
17.10.2015 23:00 5,5 C 92 % 1018,3 hPa 0,0 mm SO 0,8 km/h (0 Bft)
18.10.2015 00:00 5,1 C 92 % 1017,9 hPa 0,0 mm SO 0,1 km/h (0 Bft)
18.10.2015 01:00 4,8 C 92 % 1018,0 hPa 0,0 mm W 0,9 km/h (0 Bft)
18.10.2015 02:00 4,4 C 93 % 1017,9 hPa 0,0 mm W 0,1 km/h (0 Bft)
18.10.2015 03:00 4,1 C 93 % 1017,6 hPa 0,0 mm W 0,0 km/h (0 Bft)
18.10.2015 04:00 4,0 C 93 % 1017,7 hPa 0,0 mm W 2,4 km/h (1 Bft)
18.10.2015 05:00 4,3 C 93 % 1017,9 hPa 0,0 mm W-NW 0,7 km/h (0 Bft)
18.10.2015 06:00 4,4 C 93 % 1017,9 hPa 0,0 mm W-NW 0,5 km/h (0 Bft)
18.10.2015 07:00 4,3 C 94 % 1018,0 hPa 0,0 mm W-NW 1,2 km/h (1 Bft)
18.10.2015 08:00 4,5 C 94 % 1018,3 hPa 0,0 mm W-NW 0,9 km/h (0 Bft)
18.10.2015 09:00 5,7 C 94 % 1018,4 hPa 0,0 mm W-NW 0,3 km/h (0 Bft)
18.10.2015 10:00 6,9 C 92 % 1018,4 hPa 0,0 mm S 3,2 km/h (1 Bft)
18.10.2015 11:00 8,0 C 89 % 1018,2 hPa 0,0 mm SO 1,6 km/h (1 Bft)
18.10.2015 12:00 9,8 C 82 % 1017,6 hPa 0,0 mm S-SO 5,3 km/h (1 Bft)
18.10.2015 13:00 10,6 C 79 % 1016,7 hPa 0,0 mm SO 6,0 km/h (2 Bft)
18.10.2015 14:00 10,8 C 79 % 1016,4 hPa 0,0 mm W-SW 4,4 km/h (1 Bft)
18.10.2015 15:00 10,3 C 79 % 1016,5 hPa 0,0 mm W 7,1 km/h (2 Bft)
18.10.2015 16:00 9,6 C 82 % 1016,9 hPa 0,0 mm W-SW 7,2 km/h (2 Bft)
18.10.2015 17:00 8,3 C 86 % 1018,0 hPa 0,6 mm W 12,1 km/h (2 Bft)
18.10.2015 18:00 6,9 C 92 % 1018,7 hPa 1,0 mm W 6,4 km/h (2 Bft)
18.10.2015 19:00 6,4 C 92 % 1018,9 hPa 0,0 mm W 2,3 km/h (1 Bft)
18.10.2015 20:00 6,3 C 92 % 1019,1 hPa 0,0 mm W-NW 2,3 km/h (1 Bft)
18.10.2015 21:00 6,1 C 93 % 1019,0 hPa 0,0 mm W-NW 0,3 km/h (0 Bft)
18.10.2015 22:00 6,0 C 93 % 1018,9 hPa 0,0 mm W-NW 0,0 km/h (0 Bft)
18.10.2015 23:00 6,0 C 94 % 1018,8 hPa 0,0 mm W-NW 0,9 km/h (0 Bft)
Min-Datum _ 12.10.15 17.10.15 15.10.15 - - 12.10.15
_ Min-Zeit 00:30 15:10 06:55 - - 00:00
Minimum _ 1,1 C 75 % 1010,3 hPa - - 0,0 km/h (0 Bft)
Max-Datum _ 18.10.15 12.10.15 17.10.15 14.10.15 - 13.10.15
_ Max-Zeit 14:45 01:45 09:10 11:10 - 12:40
Maximum _ 11,3 C 96 % 1020,2 hPa 1,0 mm - 19,3 km/h
O-SO (3 Bft)
Durchschnitt _ 6,0 C 92 % 1016,2 hPa #12,0 mm W 4,9 km/h (1 Bft)